TimeMST,TemperatureF,Dew PointF,Humidity,Sea Level PressureIn,VisibilityMPH,Wind Direction,Wind SpeedMPH,Gust SpeedMPH,PrecipitationIn,Events,Conditions,WindDirDegrees,DateUTC
12:53 AM,24.1,21.0,88,30.15,10.0,NE,3.5,-,N/A,,Overcast,50,2014-01-08 07:53:00
1:53 AM,21.0,19.0,92,30.16,10.0,Calm,Calm,-,N/A,,Partly Cloudy,0,2014-01-08 08:53:00
2:05 AM,18.0,17.1,96,30.07,1.5,Calm,Calm,-,N/A,,Clear,0,2014-01-08 09:05:00
2:16 AM,10.0,8.1,92,30.06,1.0,Calm,Calm,-,N/A,,Clear,0,2014-01-08 09:16:00
2:24 AM,9.0,6.1,88,30.06,2.5,ENE,3.5,-,N/A,,Clear,60,2014-01-08 09:24:00
2:31 AM,10.9,9.0,92,30.07,6.0,North,3.5,-,N/A,,Clear,10,2014-01-08 09:31:00
2:53 AM,10.0,8.1,92,30.21,10.0,Calm,Calm,-,N/A,,Clear,0,2014-01-08 09:53:00
3:53 AM,12.9,10.0,88,30.21,10.0,ENE,4.6,-,N/A,,Overcast,60,2014-01-08 10:53:00
4:53 AM,17.1,15.1,92,30.19,10.0,Calm,Calm,-,N/A,,Overcast,0,2014-01-08 11:53:00
5:53 AM,17.1,14.0,88,30.18,10.0,ENE,3.5,-,N/A,,Overcast,70,2014-01-08 12:53:00
6:53 AM,18.0,15.1,88,30.17,10.0,Calm,Calm,-,N/A,,Overcast,0,2014-01-08 13:53:00
7:53 AM,19.9,17.1,89,30.17,10.0,NE,4.6,-,N/A,,Overcast,40,2014-01-08 14:53:00
8:53 AM,19.0,18.0,96,30.18,10.0,Calm,Calm,-,N/A,,Clear,0,2014-01-08 15:53:00
9:53 AM,23.0,18.0,81,30.18,10.0,Calm,Calm,-,N/A,,Mostly Cloudy,0,2014-01-08 16:53:00
10:53 AM,24.1,18.0,77,30.17,10.0,Calm,Calm,-,N/A,,Overcast,0,2014-01-08 17:53:00
11:53 AM,27.0,21.0,78,30.13,10.0,Calm,Calm,-,N/A,,Overcast,0,2014-01-08 18:53:00
12:53 PM,28.9,21.0,72,30.09,-9999.0,North,-9999.0,-,N/A,,Overcast,0,2014-01-08 19:53:00
1:53 PM,32.0,21.9,66,30.08,-9999.0,North,-9999.0,-,N/A,,Overcast,0,2014-01-08 20:53:00
2:53 PM,30.9,23.0,72,30.14,10.0,Calm,Calm,-,N/A,,Overcast,0,2014-01-08 21:53:00
3:53 PM,30.9,23.0,72,30.14,10.0,NNE,4.6,-,N/A,,Overcast,30,2014-01-08 22:53:00
4:53 PM,30.0,25.0,82,30.12,10.0,WNW,3.5,-,N/A,,Overcast,300,2014-01-08 23:53:00
5:53 PM,28.9,25.0,85,30.15,5.0,Calm,Calm,-,0.00,Snow,Light Snow,0,2014-01-09 00:53:00
6:06 PM,28.9,26.1,89,30.04,2.5,Calm,Calm,-,0.00,Snow,Light Snow,0,2014-01-09 01:06:00
6:39 PM,28.0,27.0,96,30.05,3.0,Calm,Calm,-,0.00,Snow,Light Snow,0,2014-01-09 01:39:00
6:53 PM,28.0,26.1,92,30.15,3.0,Calm,Calm,-,0.00,Snow,Light Snow,0,2014-01-09 01:53:00
7:35 PM,27.0,25.0,92,30.06,6.0,Calm,Calm,-,0.00,Snow,Light Snow,0,2014-01-09 02:35:00
7:53 PM,27.0,26.1,96,30.16,2.0,Calm,Calm,-,0.00,Snow,Light Snow,0,2014-01-09 02:53:00
8:10 PM,26.1,25.0,96,30.06,1.8,Calm,Calm,-,0.00,Snow,Light Snow,0,2014-01-09 03:10:00
8:21 PM,26.1,24.1,92,30.06,2.5,Calm,Calm,-,0.00,Snow,Light Snow,0,2014-01-09 03:21:00
8:41 PM,26.1,25.0,96,30.06,3.0,Calm,Calm,-,0.00,Snow,Light Snow,0,2014-01-09 03:41:00
8:53 PM,25.0,24.1,96,30.18,5.0,Calm,Calm,-,0.01,Snow,Light Snow,0,2014-01-09 03:53:00
9:15 PM,24.1,23.0,96,30.07,4.0,Calm,Calm,-,0.00,Snow,Light Snow,0,2014-01-09 04:15:00
9:53 PM,25.0,24.1,96,30.16,8.0,Calm,Calm,-,0.00,,Overcast,0,2014-01-09 04:53:00
10:53 PM,26.1,25.0,96,30.16,5.0,Calm,Calm,-,0.00,Snow,Light Snow,0,2014-01-09 05:53:00
11:53 PM,26.1,24.1,92,30.13,5.0,Calm,Calm,-,0.00,,Overcast,0,2014-01-09 06:53:00